RH
4 12 20 16 14 12 7 8 9 8 8 9 9 9 12 18 20 20 19 18 17 18 25 26 25 34 40 38 40 41 38 37 38 44 50 46 48 51 48 61 67 51 37 34 39 43 43 47 49 50 53 54 56 59 61 60 57 57 57 57 59 59 58 57 58 59 60 60 60 58 57 56 52 51 52 51 53 55 60 63 66 66 65 66 66 64
5 21 30 16 9 9 7 8 7 8 9 8 11 14 15 16 17 19 19 19 17 19 23 18 19 30 35 35 37 40 40 39 38 45 49 47 58 68 56 61 78 76 58 41 41 46 43 46 48 49 51 53 55 58 61 61 56 58 59 56 57 58 58 60 61 62 61 60 60 59 57 56 52 51 52 52 54 57 60 62 64 66 66 68 68 65
16 23 21 9 7 8 6 9 9 8 9 10 13 16 17 16 16 18 16 15 14 16 18 15 22 34 37 38 38 41 44 40 36 41 45 45 58 67 58 61 77 85 79 61 48 44 43 46 46 47 50 52 54 57 61 63 58 59 59 56 57 58 58 61 64 64 62 59 59 59 56 54 53 52 54 56 59 59 60 61 64 67 69 69 68 66
24 20 12 7 8 8 7 8 9 10 10 12 13 16 18 15 18 21 16 13 11 14 16 16 27 37 37 41 43 43 41 36 34 35 37 42 49 51 53 68 75 80 88 81 65 50 43 47 46 45 49 51 54 56 60 63 60 58 57 56 58 60 60 61 66 66 62 59 59 57 53 52 53 53 56 59 62 62 63 66 66 68 70 69 67 65
17 14 8 7 8 8 9 9 10 11 14 15 12 16 18 13 15 17 13 12 11 14 16 16 25 31 37 46 48 44 40 38 36 34 36 39 42 45 55 69 71 77 87 85 81 68 53 51 49 46 48 50 54 55 57 61 59 57 56 57 58 60 61 61 64 67 63 61 60 56 53 52 52 53 57 61 64 64 65 67 66 67 69 67 66 64
11 10 7 8 9 9 10 11 12 11 14 16 13 14 14 11 11 10 10 13 14 18 18 17 26 29 32 41 44 45 45 42 36 34 40 43 41 42 52 63 65 71 77 81 87 81 67 63 60 55 50 49 52 52 54 59 59 57 57 59 58 60 62 60 62 65 63 61 61 58 55 54 53 54 59 63 65 66 66 67 68 67 67 67 66 64
9 9 8 9 10 10 11 13 12 10 14 17 14 11 11 9 10 9 10 12 15 20 16 15 25 28 29 32 32 35 37 34 33 38 48 54 50 44 47 59 66 68 74 82 84 78 74 74 72 66 56 50 51 49 52 59 60 57 57 59 58 57 59 59 60 63 63 62 62 59 57 55 52 53 60 64 65 66 67 67 69 67 68 70 69 67
9 9 10 10 11 11 12 14 12 10 13 15 12 10 10 10 10 10 10 11 13 16 13 14 20 24 35 40 29 26 29 30 34 41 48 52 51 48 49 57 65 67 69 75 77 75 79 79 75 71 61 53 50 47 51 58 61 58 56 59 58 55 57 59 60 62 62 63 62 60 58 56 51 51 58 62 64 67 68 68 68 67 69 70 69 68
9 11 11 10 12 13 12 12 10 10 11 11 9 9 9 9 10 9 9 12 12 13 17 19 19 22 32 36 27 23 27 28 34 42 45 46 46 46 49 52 56 57 58 65 72 74 76 74 71 68 62 58 53 47 49 56 61 61 58 59 59 56 59 63 62 61 63 62 61 60 59 56 52 51 55 59 63 67 68 69 67 67 70 70 68 67
9 10 9 9 11 12 12 10 9 10 9 9 8 8 9 9 10 11 11 14 15 19 24 21 22 28 28 26 24 28 31 31 38 46 44 45 47 46 48 50 51 50 50 58 66 68 66 65 65 64 62 62 57 48 48 54 60 62 61 60 60 59 59 62 62 61 62 61 59 60 58 56 53 51 54 58 62 66 67 68 66 66 69 71 71 69
10 10 8 9 10 10 10 10 10 10 9 9 9 9 11 11 12 14 15 18 22 26 25 18 23 31 28 24 25 31 35 33 42 50 48 47 46 45 48 48 45 46 47 51 56 58 58 56 58 61 62 61 56 49 48 52 56 61 62 61 60 60 58 59 61 61 61 60 59 60 58 56 54 52 52 57 61 64 66 65 64 64 68 72 73 72
11 12 10 9 9 8 11 11 10 10 9 10 10 11 16 17 15 17 19 22 27 28 22 17 18 20 24 26 26 31 32 28 35 45 51 52 46 44 47 43 40 43 42 43 45 45 48 53 57 59 58 58 55 50 50 53 53 57 62 62 60 60 59 59 61 61 60 59 59 59 58 56 55 52 50 54 59 63 65 65 63 63 67 72 74 75
13 12 10 11 10 9 11 12 12 11 10 11 11 13 21 23 20 21 21 20 23 23 18 16 13 15 25 26 22 27 29 25 27 31 41 49 45 41 41 37 37 38 38 45 49 47 50 54 56 56 55 56 55 51 52 55 53 54 57 59 59 59 59 60 61 60 59 59 59 59 58 56 55 52 50 53 57 61 65 66 64 64 69 74 77 78
17 14 10 11 12 11 10 13 15 13 12 13 13 14 22 27 26 26 23 20 22 19 14 13 13 20 29 25 18 21 22 22 24 23 28 33 31 29 29 32 38 42 49 61 60 57 62 64 61 57 52 53 55 53 54 57 56 55 54 54 57 58 58 59 60 59 57 58 59 59 59 56 54 53 50 51 56 60 62 64 65 67 71 76 79 80
17 20 15 12 11 11 10 11 13 13 14 15 12 14 21 22 23 26 26 24 23 21 16 14 15 22 27 23 18 18 18 20 24 27 31 31 28 25 25 30 35 36 45 53 50 46 54 62 63 58 52 54 62 60 57 59 60 58 55 54 56 57 57 58 59 58 57 57 57 58 59 56 54 52 48 48 53 57 59 63 67 70 74 77 79 80
15 19 15 11 10 10 10 10 10 13 17 15 12 16 19 16 17 23 25 23 23 26 23 17 17 20 22 20 17 17 19 21 23 28 32 33 33 29 29 30 27 27 32 34 34 35 38 45 51 56 59 59 62 61 56 56 60 60 58 57 57 57 56 56 58 58 57 56 56 58 59 57 54 51 46 45 49 53 57 63 70 73 76 79 81 82
19 22 14 11 13 12 11 10 10 14 17 17 17 18 15 12 15 22 24 24 26 28 23 17 18 19 21 23 19 17 21 22 21 24 27 29 31 28 29 31 27 27 29 26 29 33 35 38 39 44 52 52 52 54 53 54 57 58 59 59 58 58 55 54 56 58 57 57 57 59 59 58 54 50 45 45 48 52 58 64 70 73 77 83 84 84
20 22 15 10 14 13 10 12 13 14 15 18 20 16 12 13 18 22 25 25 27 27 21 17 17 21 29 30 21 18 22 22 21 22 24 27 27 24 29 34 31 28 29 30 31 33 36 40 38 38 42 43 43 46 48 52 55 55 58 59 58 57 55 53 55 57 57 58 58 58 59 58 54 50 47 46 48 53 58 64 68 72 79 85 85 83
16 22 19 11 12 11 10 16 20 18 16 18 19 14 15 23 26 24 25 27 30 29 24 18 16 24 34 30 22 22 24 23 22 21 22 23 22 23 29 35 33 31 33 34 32 35 41 40 36 36 36 36 39 42 45 49 52 55 56 57 57 55 54 54 55 56 57 57 57 56 58 58 54 51 48 47 48 52 57 61 66 73 81 85 83 79
15 24 25 14 11 12 14 20 24 23 18 16 18 17 17 24 25 22 22 27 30 30 28 24 22 30 32 24 22 26 24 22 23 23 24 23 22 24 27 30 31 32 34 31 29 35 44 42 39 38 34 34 37 40 44 46 48 52 54 55 56 53 52 53 54 56 57 56 55 55 57 58 54 52 50 48 48 51 55 58 64 73 81 82 79 74
15 23 26 16 12 17 23 23 21 23 22 20 23 24 22 22 22 21 23 25 26 29 31 28 28 34 31 23 24 27 24 22 22 24 27 25 24 25 25 27 29 30 33 33 32 35 39 42 44 40 34 34 35 40 49 49 45 46 50 52 54 53 51 51 53 57 57 55 55 55 57 58 54 51 51 50 49 51 54 56 63 73 78 78 75 71
16 21 25 21 20 26 27 19 15 19 21 21 23 25 24 25 27 28 29 28 26 27 30 29 32 36 32 24 25 27 26 24 22 25 28 25 24 26 26 28 29 32 38 40 38 40 44 49 49 44 43 42 36 41 52 52 45 42 44 47 51 54 53 51 53 57 57 56 54 55 56 56 53 51 52 51 49 52 54 56 63 73 77 75 71 67
17 19 24 23 22 24 21 15 15 18 18 20 23 24 25 26 30 35 36 35 31 27 24 25 31 36 32 25 26 27 26 26 26 27 26 23 25 27 26 28 28 32 39 38 35 40 45 48 46 43 48 47 40 43 51 52 48 42 38 40 43 47 50 50 51 53 55 55 53 53 55 54 51 52 54 52 49 52 54 55 63 73 75 72 69 66
19 21 25 23 19 18 18 18 20 21 20 24 28 29 27 28 32 36 35 35 35 31 29 29 31 35 33 24 23 25 25 26 27 26 25 25 27 28 26 27 29 31 34 32 34 39 38 36 35 33 38 42 43 46 46 47 48 42 36 37 37 39 43 46 48 50 51 52 51 53 54 52 51 52 53 51 49 52 55 55 63 72 73 72 70 67
20 23 24 24 22 24 28 30 31 30 27 26 30 33 32 33 36 36 33 32 35 35 35 35 32 31 29 23 21 23 25 27 26 24 26 27 28 28 28 30 31 31 32 31 34 40 37 32 30 29 30 35 43 47 44 45 46 40 36 37 38 38 38 41 47 49 49 50 51 52 53 50 49 50 50 50 50 54 57 58 63 70 73 72 71 67
21 26 25 27 33 36 39 41 38 32 28 26 29 32 33 37 40 40 38 34 36 40 40 38 37 34 29 24 22 22 25 29 28 26 27 28 28 30 32 33 32 32 35 36 37 42 43 40 36 34 32 30 33 39 40 41 42 38 37 38 38 41 40 41 47 50 48 50 50 50 50 48 48 48 47 49 52 55 57 60 66 71 73 73 71 67
22 26 22 26 36 39 38 39 34 28 27 30 31 30 31 34 35 40 43 38 40 45 39 35 42 44 34 27 24 24 28 32 32 30 28 29 30 32 33 33 32 32 33 38 45 50 53 51 44 40 38 32 28 30 30 31 32 32 35 37 38 44 45 44 48 51 48 49 50 49 47 46 47 46 45 48 52 54 57 64 72 74 75 74 70 66
27 30 25 25 31 31 30 30 27 25 29 32 33 33 34 33 34 42 47 41 42 46 37 32 43 47 37 28 25 27 32 34 33 32 31 32 32 32 32 31 29 30 30 32 41 47 51 52 44 36 37 35 32 33 32 30 29 28 30 33 37 44 48 48 49 50 49 50 50 47 44 45 45 44 43 47 50 51 58 68 74 75 75 73 69 67
30 34 30 26 26 26 27 26 23 25 28 30 33 35 36 36 38 46 49 42 39 45 43 40 44 44 34 29 28 29 32 33 32 31 31 32 32 31 30 30 28 30 30 30 33 37 42 45 42 38 40 40 40 40 37 34 33 32 32 33 36 41 46 50 51 49 48 48 46 43 41 43 42 39 41 45 47 49 57 67 73 75 76 73 70 69
29 35 31 26 26 27 27 24 22 25 27 30 34 32 32 37 43 47 48 43 41 45 45 41 41 39 33 31 31 29 30 31 30 30 29 28 30 31 29 29 29 30 31 31 33 35 38 42 41 39 40 40 41 42 40 38 38 39 39 37 37 39 43 49 51 49 48 46 42 40 39 38 37 37 39 43 45 48 53 60 67 73 76 74 72 71
31 35 31 26 27 28 27 25 25 26 28 32 33 31 35 45 52 57 58 53 48 45 41 38 40 36 30 28 28 26 29 30 27 28 30 28 29 30 29 29 31 31 31 33 33 31 35 40 40 38 37 37 38 39 41 42 42 43 44 40 38 38 41 46 48 47 47 45 41 40 38 36 36 36 38 40 42 46 48 52 60 66 70 72 71 69
31 31 26 26 30 30 27 28 28 27 28 35 39 44 53 52 46 50 54 51 50 49 44 42 42 34 25 24 25 25 27 28 26 28 32 32 31 31 32 33 33 33 32 33 33 32 33 36 37 37 38 37 36 36 37 39 42 43 43 42 40 38 39 43 44 44 44 44 42 41 40 39 39 38 37 38 41 44 47 51 57 61 64 66 68 68
29 29 27 27 30 29 27 28 28 26 31 38 38 44 52 45 35 39 43 40 44 49 47 43 37 29 25 26 27 27 27 27 28 29 31 33 33 32 34 35 34 34 33 33 35 35 35 35 36 38 39 36 36 37 34 35 40 42 41 40 41 39 39 41 43 44 44 44 42 41 40 41 41 38 37 38 40 43 47 52 57 61 64 66 66 66
29 32 32 30 30 28 24 25 28 31 36 37 32 31 36 35 35 42 42 38 38 41 41 38 33 30 30 29 28 28 28 27 27 28 31 33 32 33 35 35 34 34 35 34 35 36 36 36 37 39 38 36 37 40 40 38 40 42 40 38 38 40 40 40 41 42 43 43 42 41 40 40 40 39 38 38 40 44 50 54 58 62 65 66 65 64
31 32 31 31 31 28 22 22 30 36 36 32 28 26 26 25 27 32 34 33 32 33 34 34 33 32 32 29 26 26 27 27 25 26 29 30 30 33 36 35 35 35 35 36 37 37 37 37 38 39 39 38 39 40 41 40 39 39 39 36 35 38 39 38 38 38 38 39 41 42 41 40 40 39 40 40 41 46 52 56 59 63 64 63 63 63
32 31 28 28 28 26 24 23 28 32 32 32 30 25 21 21 23 28 33 31 28 28 30 29 28 28 27 25 24 23 25 25 24 25 29 31 32 34 35 34 35 37 36 37 38 39 38 38 39 40 40 40 41 39 38 39 39 38 38 36 34 35 36 35 35 35 35 36 38 40 41 40 40 40 40 41 43 46 51 55 57 58 59 59 61 62
29 32 32 32 29 27 27 26 24 24 28 35 36 27 21 22 24 30 37 34 27 24 26 27 27 25 23 22 22 23 24 25 26 30 33 33 32 31 31 31 32 33 34 35 36 38 38 38 39 40 40 42 42 41 41 41 41 39 38 38 38 37 36 35 33 32 33 35 36 39 41 40 40 40 41 41 42 44 47 50 53 53 55 57 60 62
24 30 33 35 32 27 28 29 27 24 26 34 36 26 21 23 23 25 32 32 26 22 21 24 26 23 22 22 23 24 26 28 34 38 36 32 31 30 30 29 28 30 32 33 34 36 37 38 38 40 41 42 43 43 44 43 42 40 39 39 40 40 38 36 33 31 32 33 35 38 40 40 40 40 41 41 42 43 45 47 49 50 51 53 55 57
24 24 27 33 34 31 32 33 31 27 25 31 33 25 21 24 21 23 33 33 26 23 21 22 25 23 22 23 24 27 29 31 35 38 36 33 32 31 29 28 27 28 30 31 32 34 36 37 37 39 41 42 42 42 43 44 44 43 41 40 41 40 39 38 36 33 32 33 36 38 39 40 41 41 42 41 42 43 44 46 47 47 48 50 52 53
28 27 28 33 35 34 35 35 32 25 21 26 31 25 23 26 24 28 39 37 28 24 23 23 25 24 23 25 26 28 30 30 31 34 35 33 30 29 28 28 27 28 28 28 29 31 34 36 37 38 40 40 41 41 41 43 45 45 43 42 41 41 41 41 38 36 34 34 36 39 40 41 42 43 43 43 43 43 44 45 45 45 46 48 51 51
30 31 31 33 33 31 32 34 30 23 19 25 30 26 24 26 27 31 37 35 29 27 25 25 26 25 24 25 26 26 27 29 32 35 34 30 28 28 27 25 26 26 26 27 28 29 31 35 38 40 39 39 40 40 39 41 44 45 45 43 42 42 43 43 41 37 35 35 36 38 40 41 42 43 44 45 46 45 44 45 45 44 45 46 46 45
31 31 31 32 32 29 28 30 29 25 25 27 28 27 24 22 23 28 33 32 29 27 25 24 25 25 25 26 27 28 28 29 32 33 32 29 30 31 27 24 25 26 26 28 29 29 31 34 37 39 39 38 39 40 41 41 41 44 45 44 43 43 43 44 42 38 37 37 37 37 39 40 42 45 47 47 47 46 46 47 46 45 46 45 43 39
29 31 32 30 30 29 27 28 28 26 29 31 31 32 29 19 17 23 27 26 23 23 24 25 25 25 27 28 29 30 30 30 29 29 29 29 31 32 28 25 27 28 27 28 29 29 32 34 35 36 37 38 38 38 41 42 42 43 45 45 43 42 43 45 43 39 38 38 37 37 38 40 43 47 50 50 49 48 47 48 48 47 46 44 40 36
23 27 30 27 26 28 27 27 26 26 29 32 32 33 30 23 21 25 25 21 19 20 22 24 25 26 28 29 30 31 31 31 30 30 29 30 32 32 29 26 27 28 27 28 29 30 31 33 35 36 37 38 38 38 39 41 43 44 44 45 44 43 43 45 44 41 39 38 38 38 39 40 43 47 50 52 50 49 49 49 49 47 44 40 35 32
19 23 31 31 25 22 22 23 26 29 32 33 30 25 23 23 24 26 26 24 23 22 20 20 23 26 27 28 30 30 31 32 31 30 31 32 34 34 30 26 26 27 27 28 29 31 33 35 37 38 39 38 39 39 39 40 43 45 44 44 45 44 42 44 45 43 41 40 40 40 40 41 43 45 49 51 51 51 51 49 46 44 40 36 34 35
16 19 30 31 24 19 19 20 21 24 27 30 28 23 21 22 22 21 22 23 23 24 23 22 23 25 26 27 30 31 32 33 32 31 31 31 32 32 30 26 25 26 27 28 30 33 35 37 39 40 41 40 39 39 40 40 42 45 46 45 45 44 43 43 44 44 43 43 42 42 42 43 43 45 48 49 49 49 48 45 43 41 35 32 34 39
16 18 23 26 24 22 20 17 15 17 21 23 23 22 22 22 22 22 22 22 22 24 25 25 26 27 27 28 31 33 33 33 33 33 32 31 32 33 31 27 26 26 27 30 32 34 36 39 41 41 42 41 40 40 40 40 41 44 47 47 46 44 43 43 44 44 43 44 44 44 44 44 45 45 47 47 48 47 43 40 39 36 33 36 42 44
18 19 21 23 24 23 19 16 15 16 17 17 17 17 18 18 19 22 23 23 24 25 26 27 28 28 27 27 30 34 35 34 34 34 33 31 31 32 31 28 26 26 29 31 34 36 37 39 40 41 42 43 44 42 40 40 40 41 44 47 48 46 43 42 43 44 44 44 45 45 44 45 45 45 44 43 44 46 43 39 36 34 36 44 52 53
25 23 22 22 23 24 20 17 17 16 16 15 15 17 18 18 19 21 21 21 22 23 24 25 26 27 28 29 30 33 34 34 34 33 32 32 32 32 31 29 28 28 30 33 35 37 39 39 40 41 42 42 43 44 42 42 42 42 42 45 48 49 46 42 42 44 44 45 46 46 45 44 44 45 44 40 38 39 40 39 36 33 30 31 36 44
26 23 21 22 24 24 20 18 20 20 18 16 16 18 20 20 20 23 23 22 21 20 21 22 23 25 27 27 28 30 32 33 33 32 33 33 33 31 30 29 30 30 31 34 37 37 37 38 39 41 42 42 43 44 44 43 44 44 44 43 45 48 48 45 43 44 45 45 46 47 46 44 44 44 44 43 39 35 36 39 36 33 32 29 25 29
24 25 23 23 25 24 20 21 24 24 21 19 19 20 20 19 20 22 23 23 23 21 21 21 22 24 25 25 25 27 30 32 31 31 33 33 30 29 30 30 30 31 33 36 38 37 36 38 40 41 43 44 44 43 44 44 45 45 45 44 44 46 48 48 46 44 45 46 46 46 46 45 44 43 42 42 41 37 38 41 39 35 37 37 29 23
Wind_Speed
3 2 3 1 4 7 9 7 7 10 7 6 8 6 7 8 5 2 3 5 4 7 1 7 7 11 14 11 11 10 9 8 8 7 5 4 2 4 3 1 4 9 5 12 14 11 11 11 10 11 10 9 9 8 7 6 5 5 6 6 6 5 6 8 7 9 10 11 12 12 12 12 10 10 9 10 10 10 11 12 11 12 13 13 14 14
3 3 3 3 3 7 9 8 8 9 9 8 7 7 7 5 4 4 2 2 7 8 4 2 2 8 13 11 10 10 8 9 9 9 9 7 2 3 5 1 3 8 6 7 12 11 10 10 10 9 9 9 8 8 7 6 6 5 5 5 5 4 4 6 7 8 9 10 11 11 12 12 10 10 9 10 10 10 10 11 11 12 12 12 12 13
6 5 7 5 8 8 7 5 7 9 9 7 6 6 6 3 4 4 4 5 7 6 5 5 2 7 12 11 10 12 11 10 10 10 9 8 6 5 7 1 6 3 6 3 5 9 10 9 9 8 7 7 7 7 7 6 6 5 5 5 4 4 4 4 6 7 8 9 10 10 12 11 9 9 10 11 11 11 11 12 12 13 13 12 12 13
2 5 5 6 5 7 9 6 7 8 6 7 5 4 5 3 1 2 4 3 6 5 3 6 5 6 9 9 8 10 9 6 7 8 8 9 8 8 6 6 7 4 2 5 5 4 9 9 8 7 6 7 7 7 7 7 6 5 5 6 4 3 3 3 5 6 6 8 9 10 11 10 8 9 10 11 12 13 13 13 14 14 14 14 13 13
2 3 6 7 4 5 9 7 7 6 5 8 6 4 5 4 4 4 2 2 6 3 3 6 3 2 7 8 6 5 5 5 6 7 7 7 7 6 5 9 7 6 6 3 6 6 3 6 7 8 8 8 9 8 8 9 8 6 5 5 4 4 3 3 3 4 5 7 9 11 12 11 9 9 10 11 13 13 12 12 14 15 15 14 14 14
3 5 5 9 5 4 7 7 9 7 3 4 3 6 8 7 6 7 5 4 4 2 3 3 3 2 5 7 7 8 8 8 9 9 7 5 4 5 5 7 7 6 6 7 4 6 5 1 4 9 9 10 10 9 9 9 8 6 6 6 4 4 4 2 3 3 5 6 8 11 14 13 11 11 12 12 13 13 12 12 12 13 13 13 13 14
4 3 2 5 6 5 4 4 8 8 5 2 2 7 10 9 10 9 8 6 4 4 3 4 3 3 4 4 3 8 8 6 5 6 9 6 4 5 4 6 7 5 4 5 6 9 5 4 5 12 13 12 11 11 9 9 9 8 7 6 5 4 4 3 2 2 4 6 7 10 12 13 12 12 12 12 12 13 13 12 12 13 13 13 12 13
6 7 5 6 7 4 4 4 7 9 7 2 4 9 11 10 11 10 9 7 3 5 5 4 5 3 2 3 0 3 3 4 1 3 8 8 7 6 5 6 8 6 5 5 6 8 7 9 12 14 15 14 12 12 11 9 9 9 7 7 6 4 4 3 3 2 3 5 6 8 11 13 12 11 11 11 11 12 14 13 13 13 14 12 11 12
5 8 8 9 7 4 6 6 8 8 8 6 9 9 9 9 9 9 8 6 5 6 4 3 4 4 0 3 2 4 2 2 5 7 5 4 4 6 5 6 8 8 8 8 7 8 9 11 15 17 15 14 14 13 12 11 10 10 9 7 6 5 5 4 2 2 2 4 5 7 10 13 12 11 11 11 11 12 13 14 14 14 14 13 11 11
4 6 6 8 6 6 7 6 6 6 7 7 8 8 7 7 6 6 6 5 7 5 4 4 4 5 3 3 2 5 3 3 7 6 4 4 2 3 5 5 7 8 8 9 8 9 11 14 18 18 14 13 15 14 12 11 10 11 10 8 8 6 5 5 3 2 1 3 4 5 8 12 13 12 12 12 12 13 13 14 14 13 14 15 14 12
2 2 1 4 5 6 7 7 3 2 7 7 7 7 6 5 4 5 4 4 5 3 5 6 3 5 3 3 3 5 3 3 6 5 2 4 2 2 4 4 6 6 6 7 8 10 12 12 13 16 15 14 14 13 12 11 10 12 11 9 9 7 6 5 4 2 1 2 3 4 7 11 13 13 12 12 12 13 13 13 14 14 13 14 14 12
4 5 2 4 4 6 8 7 2 4 6 6 5 5 5 4 3 2 1 1 2 3 4 5 3 4 3 4 5 7 2 2 5 5 7 5 5 4 6 6 6 7 8 8 8 8 9 9 9 12 14 13 13 13 12 12 11 11 11 10 9 8 7 5 4 3 1 1 2 4 6 9 12 13 12 12 11 12 13 13 14 14 13 14 14 13
2 3 2 3 3 6 9 7 2 1 4 5 5 5 4 4 3 2 2 1 2 3 4 4 5 4 4 5 6 6 3 3 6 4 9 11 8 7 9 9 7 8 7 3 1 1 3 4 4 7 10 11 13 14 13 13 12 11 11 12 11 9 8 6 6 4 2 0 1 3 5 8 10 12 12 11 11 12 13 14 15 14 13 14 15 14
2 4 2 2 2 5 9 6 5 5 6 6 5 5 5 4 4 4 4 4 4 5 7 6 6 3 3 3 6 7 6 7 7 5 6 6 4 4 6 7 6 5 5 5 1 2 4 4 3 6 8 10 12 13 14 13 12 11 11 12 11 10 8 8 7 5 3 1 0 1 4 6 9 11 11 9 9 10 12 13 14 14 13 14 15 15
2 3 4 7 5 6 8 6 6 7 6 6 5 5 5 5 4 5 5 5 5 7 8 7 6 3 3 5 7 7 7 9 9 9 11 9 4 2 4 3 3 4 6 8 8 6 8 12 12 9 9 8 9 12 15 15 14 13 12 12 12 10 8 9 8 5 4 3 1 0 2 5 8 11 12 9 7 9 10 12 13 13 14 14 15 14
4 4 6 5 4 6 7 6 7 7 5 5 6 5 4 5 4 4 3 4 5 5 5 4 4 4 5 7 7 7 8 10 10 10 10 5 4 4 6 4 2 6 4 2 6 6 7 12 13 12 10 10 12 15 16 16 15 14 13 12 11 10 9 10 9 7 6 4 3 2 2 4 7 11 12 8 8 10 10 10 12 13 14 14 14 14
4 3 3 2 3 5 7 5 5 6 4 5 5 4 5 4 5 5 2 2 4 5 2 3 4 4 4 5 6 6 7 7 5 5 6 6 0 3 3 2 5 7 4 3 5 3 5 10 10 11 10 10 13 15 16 16 15 15 13 12 11 10 9 10 10 9 7 6 4 3 3 3 6 11 13 11 10 11 10 10 11 12 14 14 14 12
4 1 3 4 2 5 4 3 2 3 5 5 5 6 5 3 1 3 3 1 3 5 3 4 5 5 4 2 3 5 6 6 5 4 3 4 1 2 4 4 4 3 3 3 5 5 4 5 9 11 12 11 11 12 12 13 13 12 13 12 11 11 10 9 10 9 8 7 5 4 3 3 6 10 13 13 12 10 10 11 12 12 13 13 12 10
4 2 3 3 3 3 2 3 2 1 1 4 4 4 3 2 1 3 4 3 5 5 4 6 7 6 4 4 5 7 9 9 7 6 5 4 3 3 5 3 4 1 2 1 3 3 5 3 2 4 9 9 10 11 11 12 12 11 12 11 10 10 9 9 9 9 8 7 6 5 4 3 6 9 11 12 10 10 11 12 12 12 13 13 11 10
3 4 1 2 2 2 0 2 3 2 1 3 4 3 2 3 3 4 3 2 5 5 4 6 6 3 4 5 7 8 9 8 7 7 7 7 7 6 4 2 3 3 2 1 2 2 2 0 6 9 6 5 7 7 7 8 9 10 10 10 9 9 9 9 9 9 9 8 6 5 4 4 6 9 10 10 10 10 12 12 11 11 11 12 11 11
3 4 1 0 1 2 1 4 6 5 4 5 4 4 5 4 3 3 2 1 4 5 4 5 5 3 5 6 7 8 8 7 7 7 6 7 7 8 6 4 3 4 2 1 1 1 1 1 6 11 9 6 6 3 4 6 7 8 8 8 8 8 8 9 9 9 9 8 7 5 4 4 6 8 9 10 11 11 13 13 11 10 10 11 11 11
3 3 5 4 1 3 3 4 5 3 3 4 5 5 5 5 4 4 2 3 4 5 4 4 5 2 4 4 6 7 7 7 8 8 6 6 7 7 7 6 5 4 4 4 3 3 4 4 2 8 10 11 7 1 3 4 7 7 7 7 8 9 8 8 9 10 9 8 7 5 4 5 7 8 8 11 11 10 13 13 10 9 10 11 11 11
2 2 5 4 2 3 3 4 4 3 2 1 2 4 5 5 5 4 4 5 6 6 5 5 4 1 4 4 5 5 5 5 7 7 6 6 7 6 6 6 6 4 4 2 3 3 0 4 8 10 10 8 5 1 3 4 8 9 8 8 8 9 10 9 9 10 10 9 8 6 5 6 8 8 7 10 11 9 11 13 10 8 9 11 11 11
2 2 4 5 2 5 5 5 3 2 0 2 1 4 5 5 5 5 5 4 5 6 5 5 3 2 4 2 4 5 6 7 6 6 8 7 6 6 6 6 6 4 2 1 2 3 5 7 8 8 7 6 5 4 6 7 8 10 10 8 7 7 9 10 10 9 9 9 8 6 6 7 7 6 6 8 10 9 11 13 10 7 9 10 10 11
3 2 3 6 3 4 5 2 2 2 0 0 3 5 4 4 6 5 5 4 4 5 6 5 5 3 3 2 5 6 7 7 7 7 7 7 6 6 6 5 5 5 3 3 2 2 4 4 5 4 2 5 9 11 12 11 10 11 11 8 8 7 8 9 10 9 9 9 8 7 7 7 5 5 7 7 8 9 12 13 9 7 8 9 10 10
3 4 4 5 4 2 2 1 1 2 2 2 4 4 3 4 5 4 5 4 3 6 7 5 4 6 6 8 9 8 6 7 8 8 7 6 6 7 5 4 4 5 5 6 6 5 6 6 8 9 8 5 3 8 11 12 13 12 9 8 8 7 6 7 10 9 9 9 7 7 6 5 5 6 6 6 7 9 11 11 9 7 8 9 9 10
3 4 4 3 4 4 3 3 3 4 5 3 3 5 4 4 4 4 4 4 4 7 6 3 7 10 10 10 10 9 7 6 7 7 7 7 6 6 6 4 4 5 3 4 5 6 7 6 4 6 10 9 6 6 5 4 7 8 7 7 7 6 5 7 9 9 9 8 8 8 6 4 6 7 5 4 6 8 9 8 8 8 8 9 9 9
4 4 2 2 4 4 3 3 3 4 4 3 4 5 3 4 5 3 4 5 6 6 6 5 12 12 10 11 10 7 7 5 6 7 7 7 6 6 6 5 6 6 5 5 4 3 3 6 3 3 7 7 8 11 12 9 9 9 6 6 5 6 6 7 9 9 9 9 11 9 5 5 10 9 3 2 5 8 7 6 7 8 9 9 9 9
4 5 1 1 4 4 2 2 2 3 3 3 4 4 4 5 4 2 4 7 6 5 7 10 14 13 11 11 8 7 7 5 6 5 4 4 5 6 7 7 7 7 6 6 6 4 4 3 1 4 7 9 8 8 10 11 10 10 10 6 4 6 7 8 9 9 8 10 11 9 6 8 10 6 0 2 6 7 6 6 6 7 9 10 9 9
2 3 2 2 4 5 5 4 2 3 4 4 5 6 5 3 2 3 4 7 6 6 9 11 13 14 10 6 6 6 4 5 4 5 4 3 4 6 7 7 7 7 7 6 5 5 4 5 6 7 7 6 4 4 7 10 9 8 9 8 5 5 6 8 8 7 8 10 10 8 8 8 7 4 4 5 7 7 6 6 6 6 8 9 10 10
1 1 3 3 5 6 7 7 5 4 6 6 6 6 2 3 4 1 2 3 4 6 8 9 11 12 6 4 5 5 4 5 5 6 7 5 3 5 6 7 7 7 7 6 5 4 5 7 6 5 5 4 4 4 5 6 7 6 6 8 6 5 6 8 8 9 10 9 8 8 9 8 5 5 6 6 6 6 6 5 5 5 7 9 10 10
2 2 2 2 5 6 5 8 6 5 7 9 9 7 4 5 2 1 2 3 4 3 5 6 7 8 5 7 8 6 6 8 8 8 7 6 5 5 6 6 7 7 6 6 6 5 5 5 4 5 6 6 6 6 5 4 5 4 4 5 5 4 4 7 7 8 8 7 8 7 8 7 5 6 7 6 6 6 6 5 5 6 8 9 10 11
4 4 3 3 5 4 3 6 4 4 6 7 6 7 9 6 5 5 5 6 7 6 3 4 6 6 7 9 8 7 8 8 8 6 5 4 4 4 4 4 6 5 5 4 4 4 4 5 5 5 6 6 6 6 6 5 4 4 4 5 4 4 3 3 5 6 6 7 8 7 7 6 6 7 7 6 6 6 6 5 5 6 8 10 11 11
5 5 5 4 5 5 2 4 3 5 6 2 1 5 9 8 8 7 7 9 8 7 7 8 8 8 9 9 8 7 7 7 6 4 3 2 2 2 3 4 4 3 4 3 3 4 4 4 4 4 4 4 4 3 3 3 3 2 3 4 3 2 3 4 5 6 7 8 7 6 6 7 6 7 6 6 6 6 5 6 6 6 8 9 11 12
5 5 5 4 4 5 6 3 4 5 3 3 5 6 6 6 6 6 7 9 9 9 10 10 10 10 9 8 6 6 6 6 6 5 5 4 2 1 2 3 3 4 4 3 2 3 3 3 3 3 3 3 2 1 1 1 1 1 1 2 2 2 3 5 6 7 7 7 6 6 7 8 7 6 6 6 6 5 5 6 7 7 8 9 10 11
4 4 4 4 4 4 5 4 4 3 4 8 7 6 5 3 4 4 7 8 9 9 10 9 9 8 7 6 5 5 5 7 7 5 2 2 3 2 3 3 3 3 3 3 2 3 4 3 3 3 2 2 3 3 2 0 1 2 1 1 2 2 3 5 7 7 7 7 7 6 7 8 7 5 5 6 6 5 5 6 7 7 8 9 9 11
5 4 4 4 4 4 5 5 6 5 4 7 7 6 5 3 2 2 4 7 8 8 8 7 6 5 5 5 5 4 5 7 6 2 6 7 4 3 2 4 3 2 3 3 2 2 3 4 5 5 3 4 4 4 3 2 2 3 4 3 3 3 4 5 6 7 6 7 8 7 7 8 6 5 6 6 6 7 6 5 6 8 9 10 10 9
6 5 5 4 4 4 5 5 5 7 5 4 7 7 5 3 2 1 3 6 8 9 8 6 4 3 4 5 4 4 5 6 2 3 4 2 2 3 3 5 5 4 4 5 4 3 4 5 6 6 6 6 6 6 5 5 5 5 5 5 5 5 5 5 5 6 6 7 7 6 6 7 6 6 6 6 7 7 6 6 7 9 10 10 9 8
8 6 5 5 5 4 5 6 5 5 3 5 10 9 6 5 3 1 4 5 3 6 8 6 3 2 3 4 3 3 5 5 0 4 3 1 3 4 4 5 5 4 5 6 5 3 3 5 7 7 7 8 9 8 8 8 8 8 8 8 7 7 6 6 5 6 6 6 6 6 5 6 6 5 5 6 7 7 7 7 8 9 10 10 9 9
8 6 5 6 6 6 6 6 4 5 4 5 11 10 7 7 4 1 4 2 3 5 6 5 3 3 2 3 3 3 5 4 2 4 3 0 2 3 4 6 7 5 5 6 5 2 1 4 6 7 9 10 10 11 10 10 10 10 10 10 9 8 8 7 6 6 6 6 6 7 6 6 6 6 7 8 8 7 7 7 9 11 10 8 8 10
7 6 5 6 7 7 7 6 5 6 3 5 12 11 9 7 3 3 2 1 3 3 4 3 3 3 2 3 4 4 4 4 4 3 1 2 2 3 5 7 8 8 6 6 6 6 4 5 6 7 10 11 11 11 11 10 10 11 12 12 11 10 9 8 7 6 6 6 6 7 7 7 8 7 7 7 7 8 8 8 10 11 8 7 8 11
6 6 6 6 7 6 6 6 6 5 1 7 11 11 9 5 2 1 1 1 2 2 1 2 3 3 3 4 4 4 5 4 4 3 3 3 3 4 6 7 6 7 7 5 6 8 7 6 6 7 9 12 12 11 11 12 11 12 13 13 13 12 11 9 8 8 7 7 7 7 7 7 7 7 7 7 7 8 9 10 10 10 9 9 11 12
7 6 6 6 6 6 6 6 7 5 3 10 11 8 6 4 1 4 1 2 2 1 2 3 3 4 4 5 5 5 5 4 4 4 4 4 4 5 7 6 6 7 8 7 7 7 7 8 11 10 10 11 12 12 11 12 12 12 13 15 15 13 11 11 10 9 9 8 8 7 7 7 8 8 8 7 8 8 10 10 10 9 10 11 11 12
7 7 6 6 6 6 6 5 3 2 5 11 9 5 7 7 2 3 2 4 3 2 3 3 4 5 4 4 5 4 4 5 5 4 4 3 4 6 6 4 5 6 8 8 9 8 7 7 10 12 11 11 12 13 12 11 12 12 13 16 16 13 12 12 11 10 10 9 9 8 8 8 8 9 9 9 9 10 10 10 10 10 11 11 11 12
4 5 3 3 5 5 5 2 2 4 7 9 6 2 2 5 4 3 3 4 4 4 3 4 4 3 3 4 5 4 4 5 5 4 4 3 3 6 6 4 5 7 8 8 8 9 9 9 10 12 14 13 12 13 13 13 12 13 14 16 16 14 13 12 13 12 12 10 10 10 9 9 9 10 10 10 10 10 11 10 11 11 11 12 12 11
5 2 1 2 4 5 5 4 2 2 6 9 8 5 4 4 5 4 4 5 5 5 4 4 4 4 4 4 4 4 5 5 4 4 4 3 4 7 7 5 5 6 7 8 8 8 9 10 11 12 14 14 12 11 13 13 13 13 15 15 14 14 14 14 14 14 13 12 11 11 10 10 10 10 10 10 10 10 10 10 11 11 11 13 14 10
9 7 4 4 6 5 4 4 5 4 3 5 7 7 7 7 6 5 5 5 5 5 5 4 4 5 5 5 5 5 5 5 5 5 4 4 4 6 7 7 5 5 6 7 9 9 9 10 11 12 13 13 13 12 13 13 13 13 14 14 14 14 14 15 15 15 15 14 13 12 11 11 11 11 11 11 12 11 11 12 13 12 9 10 11 6
5 6 7 7 7 6 6 6 6 5 5 5 6 7 7 8 7 6 6 6 5 6 5 5 5 5 5 6 6 6 6 6 6 6 5 5 4 5 7 8 7 6 6 7 9 10 11 11 12 12 13 13 13 13 14 14 13 13 13 14 14 13 14 15 16 16 16 15 14 14 13 12 12 12 10 11 12 12 12 13 13 9 4 6 8 4
2 2 5 6 6 7 7 8 8 9 9 9 8 6 5 6 6 5 4 5 6 6 7 7 7 6 6 7 6 6 7 7 6 6 7 6 4 5 7 9 9 7 7 8 8 10 12 13 13 13 13 13 12 12 14 14 14 13 13 13 14 14 14 15 16 17 17 16 15 15 14 13 13 13 12 12 12 12 13 13 11 7 4 7 10 8
3 5 5 5 5 6 6 5 5 6 7 7 4 4 5 4 4 4 5 6 7 7 7 7 7 7 8 8 8 7 7 7 7 7 7 5 5 6 7 8 9 8 8 8 9 11 13 13 13 12 11 12 13 13 13 13 12 12 12 13 13 14 14 15 16 16 17 16 16 15 15 14 13 13 13 13 13 13 14 15 14 13 11 11 13 14
4 5 5 5 6 6 6 7 6 5 6 6 6 6 6 5 5 5 6 7 8 8 8 8 8 8 8 9 10 10 8 7 8 8 6 6 8 8 7 8 8 8 8 8 10 13 13 12 11 11 11 12 12 12 13 12 11 12 12 12 13 13 13 14 15 15 15 16 17 16 16 15 15 14 14 13 13 13 13 14 17 19 17 15 14 14
Wind_Direction
306 342 11 334 268 315 2 14 341 329 315 299 303 330 19 21 13 72 55 25 304 283 297 124 146 151 152 159 156 161 178 188 193 181 179 200 216 282 280 28 301 276 221 149 146 147 152 157 158 158 160 157 153 149 145 139 131 119 109 100 88 76 55 42 39 36 34 26 17 15 7 359 5 10 5 1 1 358 351 349 348 339 335 334 331 331
354 10 304 278 314 335 352 349 330 320 309 323 344 354 11 22 17 18 22 237 244 265 273 199 159 141 149 154 147 150 181 201 200 189 187 189 157 312 286 54 23 308 288 149 140 148 161 162 166 170 166 165 163 157 160 156 139 125 118 108 92 94 70 46 42 39 40 31 21 18 8 0 6 6 3 4 358 357 356 349 344 338 334 334 332 331
3 321 282 321 5 333 313 307 311 314 316 346 9 351 345 23 51 351 282 251 255 263 283 300 18 117 139 151 160 164 184 204 198 193 192 183 168 209 249 52 69 350 315 347 137 157 163 167 177 183 179 182 180 169 175 170 154 158 149 130 108 103 90 53 45 44 42 33 26 22 12 6 8 4 1 2 359 360 0 351 344 342 342 341 334 328
334 295 310 0 3 307 308 311 310 317 343 11 356 327 338 353 89 246 267 302 291 273 327 356 45 121 141 152 177 181 185 204 203 201 196 183 187 202 190 116 108 130 50 340 291 199 161 173 190 194 194 200 198 186 187 178 175 190 158 138 142 124 105 70 48 44 44 32 25 23 15 11 12 8 2 359 358 357 353 347 344 344 343 338 330 325
163 9 359 333 297 302 321 329 346 344 8 22 352 295 304 294 241 247 285 286 268 265 49 27 26 172 163 164 190 205 202 222 227 225 211 186 188 192 130 111 135 159 147 172 282 287 200 183 207 213 203 206 214 208 197 188 189 197 165 148 162 147 123 90 57 45 46 31 23 22 14 13 16 12 10 6 359 353 345 342 342 341 339 334 326 323
49 32 345 312 317 353 335 348 13 359 337 15 344 286 309 327 314 307 311 278 271 316 92 96 310 291 137 149 175 193 202 209 216 215 198 191 210 202 154 138 163 177 166 147 170 254 258 160 260 254 224 208 218 221 208 194 193 199 180 169 173 161 153 117 71 53 50 33 24 24 15 10 13 15 17 11 358 345 338 338 338 334 331 329 322 318
14 20 2 332 345 350 339 9 17 357 323 339 340 315 326 331 314 311 318 310 324 354 60 85 312 310 53 47 136 173 187 191 222 201 158 170 240 229 184 156 165 173 170 142 165 212 214 145 226 256 240 218 217 222 215 197 194 204 190 178 185 175 163 141 94 62 54 42 27 27 18 6 11 20 17 7 353 340 335 335 334 329 323 324 322 317
352 6 19 351 344 349 359 19 15 352 320 345 17 335 328 321 313 324 327 313 344 3 6 11 308 298 19 324 124 143 175 161 146 90 129 166 204 204 192 168 163 166 177 180 189 204 195 185 210 236 235 222 221 222 211 198 197 204 199 185 189 185 167 152 115 81 55 49 35 30 18 2 11 25 13 359 349 339 337 334 330 327 322 323 326 321
357 6 4 344 340 10 8 359 11 341 300 350 9 337 316 309 310 319 314 309 343 347 326 325 303 302 249 186 139 67 47 95 86 71 88 138 167 181 194 185 175 175 183 186 192 202 200 201 213 224 222 215 226 228 207 197 199 202 206 195 192 197 182 172 141 110 68 52 42 35 16 359 8 24 10 353 345 339 339 335 329 326 326 328 329 324
27 8 351 343 342 7 4 339 357 334 303 339 336 300 282 282 289 302 315 337 337 331 326 345 338 311 350 100 70 56 41 29 81 80 49 64 90 179 181 184 187 189 191 184 189 207 208 203 205 210 214 215 227 228 204 198 200 199 207 201 194 206 195 179 166 141 89 61 45 35 18 360 3 15 8 355 347 343 341 337 330 326 327 330 328 324
76 113 13 17 360 348 334 301 281 303 307 311 295 293 302 309 338 334 351 6 325 326 317 311 292 286 325 66 47 63 39 357 93 112 72 45 345 235 167 191 200 202 209 193 193 210 212 204 199 202 208 215 224 219 201 202 206 198 203 204 200 208 203 184 176 169 102 67 49 31 19 5 0 6 7 357 346 340 338 335 328 322 324 328 330 332
176 155 118 59 21 337 323 308 215 204 268 290 308 335 334 332 13 319 278 149 277 320 297 280 276 292 334 39 50 85 88 346 82 119 135 152 242 222 183 200 198 205 213 202 198 204 198 184 185 201 206 210 218 212 199 205 214 203 197 200 206 212 205 194 190 184 174 78 55 28 17 6 359 2 5 358 345 340 339 334 324 322 326 329 332 336
161 91 83 110 73 346 336 337 1 271 302 322 341 352 341 345 5 335 336 343 328 356 330 332 355 356 47 26 25 85 101 54 59 81 129 157 205 212 197 192 191 212 203 177 203 175 161 152 173 210 213 211 216 211 202 208 217 209 200 201 207 212 204 200 202 193 191 166 56 25 16 4 359 3 4 357 347 343 342 332 323 323 326 328 331 333
101 93 49 43 70 353 350 356 0 2 341 332 349 352 350 3 356 353 356 341 354 352 338 359 6 12 93 28 16 56 64 74 82 64 78 112 170 203 199 176 177 196 141 110 133 158 146 158 198 237 233 220 219 216 206 208 218 212 205 206 208 209 203 200 202 197 204 209 240 10 13 356 351 358 357 352 343 335 334 325 317 319 321 324 327 327
335 99 43 9 16 359 6 14 354 343 315 327 360 336 343 26 1 349 355 347 0 342 335 10 21 9 64 45 33 51 60 70 76 66 52 35 5 349 22 68 148 134 127 152 169 164 155 161 177 209 236 228 222 226 213 206 214 214 209 208 206 206 200 198 200 200 207 207 206 252 3 341 343 350 345 345 344 332 327 318 313 316 319 321 322 323
325 82 70 26 32 11 7 11 349 335 319 345 347 317 3 31 342 319 319 327 333 315 324 17 19 16 50 52 39 42 60 60 53 65 77 60 348 2 34 10 9 64 61 138 137 141 141 140 158 183 203 205 206 220 215 205 209 210 211 210 205 204 199 198 202 202 207 210 205 219 295 319 337 343 339 346 351 336 324 315 312 316 319 321 322 322
337 79 79 33 80 49 10 353 348 347 339 333 328 349 17 354 328 334 294 238 278 294 338 6 359 33 51 47 34 28 50 55 37 63 105 124 242 342 64 5 356 60 45 14 77 92 123 136 159 170 182 207 214 216 209 202 209 208 207 210 207 203 201 200 202 200 204 208 209 222 256 296 322 336 342 354 355 336 324 315 312 316 321 323 324 322
346 335 70 29 73 85 29 317 298 349 341 335 347 4 341 282 271 337 306 274 307 320 1 343 351 38 30 15 35 24 31 30 27 51 91 121 143 331 72 47 346 81 84 28 58 28 37 136 171 171 179 208 219 216 206 202 211 211 207 210 207 202 201 202 199 199 205 205 213 225 232 277 310 335 346 351 346 332 322 315 312 319 324 324 326 325
343 299 93 28 353 81 60 268 223 191 346 354 344 337 328 314 329 327 329 350 335 330 344 338 354 34 29 13 27 25 22 14 12 22 15 23 17 15 94 102 300 237 121 86 105 47 17 23 305 225 201 209 207 204 207 204 207 213 210 209 208 204 202 201 197 202 209 207 212 221 220 264 310 335 342 340 334 326 320 314 312 321 327 324 325 325
339 302 114 46 15 90 148 317 12 20 11 353 320 308 353 349 331 332 335 331 327 327 336 341 349 44 52 19 26 30 22 7 4 16 9 358 1 12 72 103 308 292 200 193 118 118 131 64 299 284 255 235 220 204 207 205 205 215 211 205 208 207 202 201 200 202 207 210 215 219 225 259 305 329 335 338 337 325 317 313 308 316 325 322 320 321
330 304 343 32 133 125 72 25 26 12 353 343 341 357 357 346 331 304 277 331 345 327 329 339 341 59 66 20 23 28 9 351 357 17 13 353 1 6 5 20 348 322 320 3 86 135 135 67 315 309 307 282 258 209 193 213 224 227 217 207 207 208 208 206 201 201 205 213 218 220 230 263 298 320 333 338 338 325 316 311 304 309 318 314 313 318
351 319 316 301 96 84 57 39 25 27 22 342 343 360 352 353 350 310 290 33 5 324 324 321 313 43 66 16 21 22 357 346 359 12 6 351 12 13 357 9 6 360 29 28 37 45 25 34 324 294 295 292 298 340 170 244 264 245 226 224 215 206 211 210 201 202 206 210 216 227 242 267 297 322 336 333 331 322 313 311 306 308 312 307 309 317
12 294 287 297 75 99 100 78 51 52 73 339 330 1 357 3 6 336 327 357 341 313 311 304 293 82 72 23 19 11 352 358 3 3 354 359 24 20 6 14 7 32 76 43 27 58 308 202 195 217 239 264 294 38 146 249 275 264 242 236 222 204 207 212 209 208 209 211 211 215 235 263 297 320 329 326 327 324 314 311 309 309 307 306 312 319
339 264 266 284 207 145 122 96 86 76 88 203 143 37 7 2 8 339 318 329 317 308 320 321 319 85 95 31 17 18 3 359 4 5 360 6 23 12 9 15 3 23 78 136 137 171 236 229 218 224 217 211 215 196 185 203 243 263 254 237 224 214 212 212 212 214 213 213 204 201 231 261 290 310 316 323 328 328 319 310 305 304 302 303 312 317
308 291 298 294 262 146 127 126 147 130 313 170 75 52 31 9 359 333 307 286 282 336 357 321 306 38 74 337 353 21 10 349 353 10 4 360 5 358 359 5 353 349 349 2 84 187 258 270 283 288 219 187 198 198 199 201 217 244 251 235 220 229 232 215 207 212 212 204 197 203 236 264 292 312 316 327 334 332 323 310 302 303 301 301 307 313
311 314 316 311 319 1 46 359 27 20 354 58 57 36 31 18 359 336 318 293 291 351 349 314 319 354 350 335 341 1 13 357 350 357 353 349 358 350 340 355 352 341 359 18 20 2 344 347 356 350 332 307 230 196 200 204 213 230 247 245 223 222 239 222 202 208 210 196 197 224 248 281 314 320 319 330 337 329 318 308 305 304 298 299 306 312
294 287 284 299 321 343 15 23 14 348 341 10 12 351 356 354 335 324 310 302 336 335 312 348 12 344 331 340 338 345 14 11 344 344 346 347 357 348 335 349 341 319 356 43 40 21 351 328 351 340 313 317 343 332 300 256 247 251 249 247 234 216 225 220 197 202 207 191 203 233 251 287 295 292 305 331 328 313 303 305 310 304 296 299 303 310
286 267 223 232 279 300 346 3 351 336 331 335 331 328 326 307 306 318 295 296 331 323 281 339 357 336 324 330 326 347 26 10 335 345 347 342 345 341 334 338 331 325 348 16 37 41 298 268 272 324 324 354 11 349 339 329 311 306 290 261 245 220 213 204 193 200 202 197 215 232 243 274 270 261 255 323 313 301 294 301 306 300 294 297 300 307
292 279 161 156 256 271 278 278 300 310 307 306 304 299 292 282 265 226 259 282 298 288 281 317 331 318 312 320 339 22 25 340 327 326 310 318 334 334 332 334 338 340 344 351 354 338 280 258 11 36 28 29 24 357 337 321 314 321 319 301 260 227 209 192 193 204 206 213 231 242 246 258 263 263 314 337 302 291 284 284 290 293 294 294 297 307
298 299 13 341 280 266 247 244 256 276 284 284 278 279 285 305 286 221 244 273 284 286 290 305 308 298 298 330 8 18 337 300 309 306 301 340 349 326 324 333 347 347 341 350 353 342 357 36 43 51 52 33 359 316 309 313 322 333 326 312 285 243 208 185 189 209 223 236 252 264 266 265 274 300 315 295 278 272 272 274 278 286 292 294 300 305
226 317 355 311 282 265 232 219 224 250 270 271 268 271 278 48 30 354 266 278 289 292 290 297 298 289 294 11 358 335 316 313 333 337 336 355 357 328 331 343 349 348 346 356 355 355 36 53 43 32 25 1 334 320 314 321 327 326 314 301 286 259 215 194 201 220 230 246 265 274 280 290 302 296 280 271 271 275 282 287 292 297 294 295 299 300
200 272 290 243 274 282 221 200 221 255 265 263 254 234 178 121 108 222 204 209 202 223 278 291 284 278 315 360 337 330 346 342 345 350 347 357 3 350 349 344 338 344 357 5 0 0 26 43 41 30 16 5 0 356 353 346 324 311 304 295 289 281 237 204 216 237 240 255 272 274 278 290 297 286 278 279 285 291 298 300 301 306 305 304 306 305
217 252 263 240 272 292 172 171 216 268 265 268 254 203 178 171 199 214 221 225 204 186 220 264 261 281 324 335 318 330 352 343 339 342 338 344 344 340 348 329 322 343 359 1 4 4 10 19 31 43 29 13 18 13 1 2 360 346 332 316 298 294 283 227 229 251 257 265 273 279 283 282 274 271 276 284 291 301 312 312 303 301 306 310 309 308
236 252 267 271 278 287 237 175 208 260 261 270 103 162 177 192 208 212 224 236 229 210 218 240 260 287 309 308 311 338 346 327 323 324 303 292 297 313 331 319 322 353 354 350 6 2 4 14 21 41 40 21 28 28 8 17 23 354 325 317 303 279 281 274 259 258 261 263 266 276 287 283 270 271 282 295 301 310 321 321 318 310 305 303 301 302
229 245 266 280 277 287 298 280 248 261 240 137 132 146 163 196 221 235 249 250 250 247 244 250 259 268 281 294 316 337 326 313 314 297 275 259 239 261 307 316 347 359 340 347 11 353 355 10 3 11 21 10 7 346 346 46 359 301 277 309 310 282 267 277 276 272 271 269 264 267 277 275 266 269 283 289 297 315 319 309 306 301 297 297 296 298
234 237 255 276 269 271 285 271 260 264 151 147 151 146 143 179 212 240 265 261 254 253 250 254 265 271 281 301 319 323 315 309 299 292 316 68 89 54 355 339 358 350 324 342 11 352 350 352 340 340 339 321 312 306 309 30 306 285 255 258 282 279 274 279 279 277 279 278 271 262 263 265 257 254 273 285 289 289 279 276 283 287 288 289 289 291
246 251 244 253 258 265 270 260 270 284 220 167 156 154 155 164 182 227 275 271 263 260 252 245 257 277 295 305 312 321 316 301 291 345 57 67 82 74 12 333 325 309 297 308 314 309 311 306 303 301 287 278 284 286 281 259 243 251 251 246 246 257 268 275 278 278 277 276 272 261 256 262 260 254 263 270 272 273 267 260 267 274 272 268 268 275
223 239 247 252 242 245 269 272 273 283 269 162 145 156 155 129 102 98 292 278 258 243 235 229 238 270 298 301 308 326 315 300 291 95 81 50 22 31 2 319 312 329 335 321 306 298 299 298 298 296 289 281 274 265 256 252 249 251 255 251 245 253 264 270 277 279 275 271 269 258 248 254 256 251 253 260 269 277 282 277 277 280 277 273 269 270
223 228 245 267 266 247 260 268 259 269 273 142 143 150 139 117 108 161 279 278 225 195 196 195 215 262 287 296 307 318 300 291 48 100 105 43 354 342 307 287 295 325 329 309 293 278 286 298 300 295 286 281 275 266 255 249 249 253 257 255 249 252 262 268 274 278 274 268 263 257 253 256 255 250 257 270 273 274 276 280 285 287 283 285 290 288
228 228 229 243 256 253 253 259 259 272 276 144 145 149 137 124 124 245 269 275 107 135 154 163 212 257 263 274 281 265 268 287 20 67 76 49 299 302 302 307 314 313 295 294 305 319 258 281 295 295 285 278 276 275 265 249 242 245 252 256 253 250 254 259 264 268 267 259 249 245 247 251 252 249 252 261 270 277 280 279 278 276 272 275 285 285
218 220 224 235 243 240 242 251 257 270 276 140 144 146 134 130 166 254 264 79 90 104 120 160 239 268 263 257 260 252 265 317 16 47 28 300 300 306 300 296 297 299 305 322 332 325 292 262 265 280 287 285 281 281 279 264 247 243 248 252 251 250 251 252 252 253 253 252 246 242 242 244 244 241 242 249 263 276 277 272 274 282 290 294 287 286
212 210 217 232 241 242 244 251 254 259 218 131 140 140 136 151 219 244 174 128 121 127 152 242 247 256 255 253 260 265 278 313 331 317 309 317 317 306 301 305 311 318 330 335 310 307 317 313 289 278 286 291 286 278 275 270 258 250 251 251 248 248 247 247 248 247 242 242 243 241 242 245 242 234 235 244 259 270 272 271 276 286 296 294 286 287
200 201 214 218 224 244 251 249 261 267 151 136 139 140 166 209 352 49 85 245 241 224 254 264 251 242 243 247 251 260 275 291 296 299 310 317 312 305 311 331 339 327 326 320 301 308 334 329 311 298 293 294 292 284 274 266 260 256 255 254 253 251 245 240 242 246 243 240 240 239 240 242 242 234 229 238 255 262 264 268 274 281 283 282 283 283
197 194 222 221 201 219 237 231 255 287 145 152 158 164 191 212 251 19 316 285 291 270 252 255 248 232 229 247 257 263 277 283 285 291 293 293 302 299 300 319 324 308 309 312 314 324 332 317 309 307 301 294 294 295 288 273 261 256 256 257 257 256 248 238 237 242 245 240 237 239 238 237 239 235 229 236 250 255 257 261 266 270 275 277 277 274
215 183 215 240 206 222 253 246 111 113 144 166 194 241 202 214 238 261 256 262 273 277 275 274 272 257 239 252 261 260 264 267 269 273 273 276 290 288 287 301 309 301 301 309 322 336 335 321 311 307 302 294 290 292 292 284 269 259 258 260 259 257 251 239 231 234 239 238 236 236 235 235 237 235 232 236 242 246 251 258 261 264 272 276 265 252
237 209 89 300 257 263 286 287 260 209 182 188 210 241 250 248 256 260 260 260 257 259 264 270 284 291 276 261 260 260 261 265 268 270 273 280 282 278 278 278 280 289 303 318 332 339 331 315 304 297 294 293 292 292 292 291 282 269 263 262 258 255 252 244 233 228 230 233 236 235 231 232 233 232 232 235 241 249 253 256 258 259 268 277 270 247
223 215 205 241 260 264 272 269 265 263 233 208 220 233 235 237 237 233 245 260 262 262 266 271 280 288 287 276 267 265 265 267 270 272 270 264 264 274 284 289 293 308 323 332 335 332 318 301 292 290 290 294 299 299 293 290 286 279 273 268 260 255 252 246 236 228 224 227 233 234 231 230 230 230 232 233 235 244 251 253 254 253 260 282 288 268
214 197 203 226 241 244 253 266 274 277 269 254 250 249 245 243 241 232 228 234 241 248 252 256 259 266 275 273 265 262 262 260 258 259 260 257 253 265 286 299 313 332 335 332 329 320 308 296 290 289 289 290 294 297 296 293 289 283 279 273 265 257 252 246 238 230 225 225 229 231 230 229 226 223 231 238 234 233 239 248 251 246 253 314 325 318
91 174 205 221 237 245 251 258 267 273 267 255 249 259 267 258 257 270 271 255 246 245 246 247 244 239 247 259 262 262 261 257 254 255 257 262 261 254 272 297 318 331 324 316 311 303 297 292 288 287 290 291 293 294 294 295 294 290 284 278 271 260 253 249 243 233 225 223 227 229 230 232 227 218 221 235 240 236 237 243 246 238 250 295 299 289
212 245 241 237 243 248 253 261 273 281 274 268 287 331 327 297 270 274 281 275 267 264 265 264 256 245 244 248 250 254 258 256 254 252 248 252 266 264 263 280 299 309 307 304 304 298 294 291 288 290 294 297 298 296 293 293 296 295 290 285 278 266 256 252 248 237 225 222 226 229 227 228 228 223 218 222 232 238 236 233 232 232 242 262 271 269
259 270 271 268 267 273 291 308 319 313 296 297 314 323 318 313 301 278 267 266 266 266 270 271 266 260 256 253 248 246 246 247 252 257 257 253 258 265 270 274 282 296 304 306 303 297 293 293 295 297 297 295 293 294 295 296 298 297 294 292 287 279 267 257 250 241 229 222 224 229 230 227 227 227 224 222 227 234 232 223 222 229 238 246 252 256